Weather History for Newcastle, WY

Change the Weather History Date:

Saturday, August 3, 2013

  Actual Average (KCUT) Record (KCUT)
Temperature  
Mean Temperature 68 °F 66 °F  
Max Temperature 78 °F 79 °F 92 °F (1947)
Min Temperature 59 °F 52 °F 32 °F (1978)
Degree Days  
Heating Degree Days 0 2  
Month to date heating degree days 6  
Since 1 June heating degree days 287  
Since 1 July heating degree days 67  
Cooling Degree Days 4 2  
Month to date cooling degree days 6  
Year to date cooling degree days 113  
Since 1 June cooling degree days 112  
Growing Degree Days 18 (Base 50)    
Moisture  
Dew Point 55 °F    
Average Humidity 65    
Maximum Humidity 88    
Minimum Humidity 41    
Precipitation  
Precipitation 0.11 in 0.07 in 1.86 in (2011)
Month to date precipitation 0.19  
Year to date precipitation 12.96  
Sea Level Pressure  
Sea Level Pressure 30.14 in    
Wind  
Wind Speed 9 mph (SE)    
Max Wind Speed 23 mph    
Max Gust Speed 31 mph    
Visibility 10 miles    
Events Rain , Thunderstorm    
T = Trace of Precipitation, MM = Missing Value Source: NWS Daily Summary

Daily Weather History Graph

Daily Weather History Graph

Search for Another Location

Airport:

Trip Planner

Search our weather history database for the weather conditions in past years. The results will help you decide how hot, cold, wet, or windy it might be!

Date:

Astronomy

Aug. 03, 2013 Rise Set
Actual Time 5:48 AM MDT 8:17 PM MDT
Civil Twilight 5:15 AM MDT 8:50 PM MDT
Nautical Twilight 4:34 AM MDT 9:30 PM MDT
Astronomical Twilight 3:48 AM MDT 10:16 PM MDT
Moon 2:58 AM MDT (8/3) 6:02 PM MDT (8/3)
Length of Visible Light 15h 34m
Length of Day
14h 29m
Waning Crescent, 9% of the Moon is Illuminated
Aug 3
Waning Crescent
Aug 6
New
Aug 14
First Quarter
Aug 20
Full
Aug 28
Last Quarter

Hourly Weather History & Observations

Time (MDT) Temp. Dew Point Humidity Pressure Visibility Wind Dir Wind Speed Gust Speed Precip Events Conditions
12:15 AM 64.4 °F 51.8 °F 64% 30.09 in 10.0 mi North - - N/A   Scattered Clouds
12:35 AM 64.4 °F 51.8 °F 64% 30.07 in 10.0 mi North - - N/A   Scattered Clouds
12:55 AM 66.2 °F 53.6 °F 64% 30.10 in 10.0 mi Calm Calm - N/A Thunderstorm Scattered Clouds
1:15 AM 60.8 °F 55.4 °F 82% 30.08 in 5.0 mi East 10.4 mph - 0.10 in Rain , Thunderstorm Rain
1:35 AM 60.8 °F 57.2 °F 88% 30.10 in 10.0 mi East 13.8 mph - 0.11 in   Overcast
1:55 AM 60.8 °F 57.2 °F 88% 30.08 in 10.0 mi East 9.2 mph - 0.11 in   Overcast
2:15 AM 62.6 °F 57.2 °F 82% 30.06 in 10.0 mi ESE 11.5 mph 20.7 mph N/A   Overcast
2:35 AM 62.6 °F 55.4 °F 77% 30.11 in 10.0 mi WSW 3.5 mph 11.5 mph N/A   Overcast
2:55 AM 64.4 °F 55.4 °F 73% 30.08 in 10.0 mi North - - N/A   Overcast
3:15 AM 64.4 °F 57.2 °F 77% 30.10 in 10.0 mi SSE 3.5 mph - N/A Thunderstorm Overcast
3:35 AM 62.6 °F 53.6 °F 72% 30.12 in 10.0 mi NNW 12.7 mph 23.0 mph N/A Thunderstorm Overcast
3:55 AM 64.4 °F 53.6 °F 68% 30.12 in 10.0 mi North - - N/A Thunderstorm Overcast
4:15 AM 62.6 °F 51.8 °F 68% 30.12 in 10.0 mi ENE 12.7 mph - N/A   Overcast
4:35 AM 60.8 °F 50.0 °F 68% 30.12 in 10.0 mi NNE 9.2 mph 16.1 mph N/A   Light Drizzle
4:55 AM 60.8 °F 48.2 °F 63% 30.11 in 10.0 mi ENE 10.4 mph - N/A   Overcast
5:15 AM 60.8 °F 50.0 °F 68% 30.13 in 10.0 mi SW 4.6 mph - N/A   Overcast
5:35 AM 60.8 °F 51.8 °F 72% 30.14 in 10.0 mi South 4.6 mph - N/A   Overcast
5:55 AM 59.0 °F 51.8 °F 77% 30.15 in 10.0 mi Calm Calm - N/A   Overcast
6:15 AM 59.0 °F 51.8 °F 77% 30.15 in 10.0 mi Calm Calm - N/A   Overcast
6:35 AM 59.0 °F 53.6 °F 82% 30.15 in 10.0 mi North 4.6 mph - N/A   Overcast
6:55 AM 60.8 °F 53.6 °F 77% 30.15 in 10.0 mi North - - N/A   Mostly Cloudy
7:15 AM 60.8 °F 53.6 °F 77% 30.15 in 10.0 mi North - - N/A   Scattered Clouds
7:35 AM 60.8 °F 53.6 °F 77% 30.16 in 10.0 mi Calm Calm - N/A   Scattered Clouds
7:55 AM 60.8 °F 53.6 °F 77% 30.16 in 10.0 mi North - - N/A   Mostly Cloudy
8:15 AM 62.6 °F 53.6 °F 72% 30.17 in 10.0 mi Calm Calm - N/A   Overcast
8:35 AM 64.4 °F 53.6 °F 68% 30.17 in 10.0 mi North - - N/A   Overcast
8:55 AM 64.4 °F 53.6 °F 68% 30.18 in 10.0 mi North - - N/A   Overcast
9:15 AM 64.4 °F 53.6 °F 68% 30.19 in 10.0 mi South 6.9 mph - N/A   Mostly Cloudy
9:35 AM 64.4 °F 55.4 °F 73% 30.19 in 10.0 mi South 6.9 mph - N/A   Overcast
9:55 AM 64.4 °F 55.4 °F 73% 30.20 in 10.0 mi South 8.1 mph - N/A   Overcast
10:15 AM 66.2 °F 55.4 °F 68% 30.20 in 10.0 mi South 5.8 mph - N/A   Overcast
10:35 AM 66.2 °F 55.4 °F 68% 30.20 in 10.0 mi South 5.8 mph - N/A   Overcast
10:55 AM 68.0 °F 57.2 °F 68% 30.21 in 10.0 mi South 6.9 mph - N/A   Mostly Cloudy
11:15 AM 68.0 °F 55.4 °F 64% 30.21 in 10.0 mi North - - N/A   Overcast
11:35 AM 69.8 °F 55.4 °F 60% 30.21 in 10.0 mi SSE 6.9 mph - N/A   Overcast
11:55 AM 69.8 °F 55.4 °F 60% 30.21 in 10.0 mi SSE 13.8 mph - N/A   Overcast
12:15 PM 69.8 °F 53.6 °F 56% 30.21 in 10.0 mi North - - N/A   Mostly Cloudy
12:35 PM 71.6 °F 55.4 °F 57% 30.20 in 10.0 mi North - - N/A   Mostly Cloudy
12:55 PM 71.6 °F 55.4 °F 57% 30.20 in 10.0 mi North - - N/A   Mostly Cloudy
1:15 PM 71.6 °F 55.4 °F 57% 30.19 in 10.0 mi North - - N/A   Mostly Cloudy
1:35 PM 73.4 °F 53.6 °F 50% 30.18 in 10.0 mi North - - N/A   Scattered Clouds
1:55 PM 73.4 °F 53.6 °F 50% 30.18 in 10.0 mi North - - N/A   Clear
2:15 PM 77.0 °F 53.6 °F 44% 30.18 in 10.0 mi SE 15.0 mph - N/A   Clear
2:35 PM 77.0 °F 53.6 °F 44% 30.17 in 10.0 mi SSE 19.6 mph 23.0 mph N/A   Scattered Clouds
2:55 PM 77.0 °F 51.8 °F 41% 30.17 in 10.0 mi SE 19.6 mph 26.5 mph N/A   Clear
3:15 PM 77.0 °F 53.6 °F 44% 30.16 in 10.0 mi SE 20.7 mph 26.5 mph N/A   Clear
3:35 PM 78.8 °F 53.6 °F 42% 30.15 in 10.0 mi SE 16.1 mph 24.2 mph N/A   Clear
3:55 PM 78.8 °F 53.6 °F 42% 30.14 in 10.0 mi SE 16.1 mph 21.9 mph N/A   Clear
4:15 PM 78.8 °F 55.4 °F 44% 30.13 in 10.0 mi SE 18.4 mph 23.0 mph N/A   Clear
4:35 PM 78.8 °F 55.4 °F 44% 30.12 in 10.0 mi North - - N/A   Clear
4:55 PM 78.8 °F 55.4 °F 44% 30.11 in 10.0 mi ESE 21.9 mph 27.6 mph N/A   Clear
5:15 PM 78.8 °F 53.6 °F 42% 30.12 in 10.0 mi North - - N/A   Clear
5:35 PM 78.8 °F 55.4 °F 44% 30.11 in 10.0 mi ESE 17.3 mph 28.8 mph N/A   Clear
5:55 PM 78.8 °F 55.4 °F 44% 30.10 in 10.0 mi ESE 20.7 mph - N/A   Clear
6:15 PM 75.2 °F 55.4 °F 50% 30.11 in 10.0 mi North - - N/A   Clear
6:35 PM 73.4 °F 55.4 °F 53% 30.12 in 10.0 mi SE 18.4 mph - N/A   Scattered Clouds
6:55 PM 73.4 °F 57.2 °F 57% 30.12 in 10.0 mi North - - N/A   Scattered Clouds
7:35 PM 73.4 °F 59.0 °F 61% 30.12 in 10.0 mi SSE 21.9 mph 26.5 mph N/A   Overcast
7:55 PM 71.6 °F 59.0 °F 64% 30.12 in 10.0 mi SSE 23.0 mph 28.8 mph N/A   Mostly Cloudy
8:15 PM 69.8 °F 59.0 °F 68% 30.08 in 10.0 mi SE 20.7 mph - N/A   Scattered Clouds
8:35 PM 68.0 °F 59.0 °F 73% 30.08 in 10.0 mi SE 20.7 mph 31.1 mph N/A   Clear
8:55 PM 68.0 °F 59.0 °F 73% 30.07 in 10.0 mi North - - N/A   Clear
9:15 PM 66.2 °F 59.0 °F 78% 30.08 in 10.0 mi North - - N/A   Clear
9:35 PM 68.0 °F 59.0 °F 73% 30.11 in 10.0 mi North - - N/A   Clear
9:55 PM 66.2 °F 59.0 °F 78% 30.12 in 10.0 mi North - - N/A   Clear
10:15 PM 64.4 °F 59.0 °F 83% 30.12 in 10.0 mi SSE 17.3 mph 21.9 mph N/A   Mostly Cloudy
10:35 PM 64.4 °F 59.0 °F 83% 30.12 in 10.0 mi SE 18.4 mph 24.2 mph N/A   Mostly Cloudy
10:55 PM 66.2 °F 59.0 °F 78% 30.14 in 10.0 mi ESE 12.7 mph - N/A   Mostly Cloudy
11:15 PM 68.0 °F 59.0 °F 73% 30.14 in 10.0 mi ESE 18.4 mph - N/A   Overcast
11:35 PM 66.2 °F 59.0 °F 78% 30.13 in 10.0 mi East 15.0 mph - N/A   Scattered Clouds
11:55 PM 66.2 °F 59.0 °F 78% 30.13 in 10.0 mi East 16.1 mph 19.6 mph N/A   Scattered Clouds